Tracking 19854 objects as of 22-Sep-2019
HD Live streaming from Space Station
objects crossing your sky now

FENGYUN 1C DEB

Track FENGYUN 1C DEB now!
10-day predictions


NORAD ID: 32410
Int'l Code: 1999-025CZW
Perigee: 500.2 km
Apogee: 600.6 km
Inclination: 97.8 °
Period: 95.5 minutes
Semi major axis: 6921 km
RCS: 0.0096 m2 (small)
Launch date: May 10, 1999
Source: People's Republic of China (PRC)
Launch site: Taiyaun Space Center, China (TSC)

Note: This is SATELLITE DEBRIS
aabbcc
Your satellite tracking list
Your tracking list is empty




NASA's NSSDC Master Catalog

Two Line Element Set (TLE):
1 32410U 99025CZW 19264.81870092  .00005426  00000-0  33908-3 0  9995
2 32410  97.8249 129.7843 0072537 234.8335 124.6083 15.07704066636259
Source of the keplerian elements: AFSPC